Shiyan 28B-02

operational
NORAD ID: 65226 Int'l Des: 2025-177 Owner: ZZB Country: CN
LEOCIRCULAR

About Shiyan 28B-02

Description loading...

Live Position

Loading 3D Globe...

Upcoming Passes

Altitude History

Altitude vs Time

uPlot chart will show altitude changes over time

Two-Line Element Set

1 65226U 25177A 25310.60765571 .00000848 00000-0 16101-3 0 9993
2 65226 11.0021 304.2751 0003434 356.9222 3.0985 14.29259972 11640
Epoch: Nov 6, 2025 • Age: 25 hours

Current Status

Altitude 788.7 km
Velocity 7.46 km/s
Sub-Earth Point 7.71°N, 55.37°E
Launch Date Aug 17, 2025
Age 0.2 years
Type other

Technical Details

Classification Payload
Mass 2000.00 kg
Dry Mass 2000.00 kg
Total Mass 2000.00 kg
Length 2.50 m
Diameter 2.50 m
Span 5.00 m
Shape Box + 2 Pan
Manufacturer IMICAS
Phase Status In Orbit
Owner/State ZZB/CN

Large Constellations

Loading constellations...